Hourly Data Report for October 03, 2015

All times are specified in Local Standard Time (LST). Add 1 hour to adjust for Daylight Saving Time where and when it is observed.

BAKER LAKE A
NUNAVUT

64°17'56.000" N
96°04'40.000" W
18.60 m
2300503
71926
YBK

Download Data

Hourly Data (October 2015)
Hourly Data Report for October 3, 2015
Temp Definition
°C
Dew Point Temp Definition
°C
Rel Hum Definition
%
Wind Dir Definition
10's deg

Wind Spd Definition
km/h
Visibility Definition
km
Stn Press Definition
kPa
Hmdx Definition


Wind Chill Definition


Weather Definition


TIME
00:00 Legend Double Dagger 0.7 -0.3 93 4 27 16.1 101.76     Rain,Snow
01:00 Legend Double Dagger 0.2 -1.0 92 2 37 24.1 101.74     Snow,Ice Pellets
02:00 Legend Double Dagger -0.1 -1.5 90 2 42 16.1 101.74   -8 Snow,Ice Pellets
03:00 Legend Double Dagger -0.1 -1.5 90 2 41 9.7 101.81   -8 Snow
04:00 Legend Double Dagger -0.3 -1.4 92 2 37 1.6 101.89   -8 Snow,Blowing Snow
05:00 Legend Double Dagger -0.3 -1.4 92 2 43 1.6 101.92   -8 Snow,Blowing Snow
06:00 Legend Double Dagger -0.1 -1.7 89 1 35 12.9 101.98   -7 Snow,Blowing Snow
07:00 Legend Double Dagger 0.0 -2.1 86 1 29 24.1 102.06   -6 Snow
08:00 Legend Double Dagger 0.3 -1.9 85 36 35 32.2 102.15     LegendNANA
09:00 Legend Double Dagger 0.5 -1.9 84 36 34 32.2 102.26     Cloudy
10:00 Legend Double Dagger 0.6 -1.8 84 36 36 32.2 102.35     LegendNANA
11:00 Legend Double Dagger 0.3 -2.3 83 35 45 32.2 102.42     LegendNANA
12:00 Legend Double Dagger 0.4 -2.0 84 35 34 32.2 102.51     Mostly Cloudy
13:00 Legend Double Dagger 0.9 -2.2 80 36 37 32.2 102.61     LegendNANA
14:00 Legend Double Dagger 0.7 -2.5 79 35 34 32.2 102.68     LegendNANA
15:00 Legend Double Dagger 0.4 -3.0 78 36 36 32.2 102.74     Mainly Clear
16:00 Legend Double Dagger -0.1 -3.0 81 35 25 32.2 102.84   -6 LegendNANA
17:00 Legend Double Dagger -1.3 -3.8 83 34 22 32.2 102.89   -7 LegendNANA
18:00 Legend Double Dagger -2.2 -4.5 84 33 20 32.2 102.96   -8 Mostly Cloudy
19:00 Legend Double Dagger -2.2 -5.2 80 34 22 24.1 103.04   -8 LegendNANA
20:00 Legend Double Dagger -3.0 -5.7 82 32 11 24.1 103.02   -7 LegendNANA
21:00 Legend Double Dagger -2.0 -5.2 79 30 11 24.1 103.04   -6 Cloudy
22:00 Legend Double Dagger -2.1 -5.8 76 29 13 24.1 103.06   -7 LegendNANA
23:00 Legend Double Dagger -2.2 -5.9 76 30 7 24.1 103.08   -5 LegendNANA

Notes on Data Quality.

Legend

  • E = Estimated
  • M = Missing
  • NA = Not Available
  • ‡ = Partner data that is not subject to review by the National Climate Archives
Date modified: